Current weather by "City, St" or "zip code"  
 

Current Conditions: Montgomery, Dannelly Field, AL

Fair and Breezy


73.0 F

Last Updated on Oct 29 2020, 4:53 pm CDT
Humidity: 57%
Wind Speed: W 24.2 G 29.9 mph
Barometer 29.75 in
Dewpoint: 57.0 F
Visibility: 10.00 mi
Precip: --
Heat Index: NA
Wind Chill: NA
Current conditions at:

Montgomery, Dannelly Field, AL (KMGM)

Lat: 32.30028 Lon: 86.40611

Local Radar Image active severe weather and emergency alerts image image weather storm and storm spotter reports image weather observation monitoring service image
Local
Radar
Active
Alerts
Storm Reports Obs
Monitoring

Sign-up For Email & Text Message Weather Alert Notification Services



Advertise Here

Observation History for Montgomery, Dannelly Field, AL


Time Wind
(mph)
Vis
(mi)
Weather Precip (in) Temperature (F) Relative
Humidity
Wind
Chill
(F)
Heat
Index
(F)
Pressure
Air Dwpt altimeter
(in)
sea level
(mb)
Rmks
4:53 pm CDT W 24.2 G 29.9 10.00 Fair and Breezy -- 73.0 57.0 57% NA NA 29.75 M
3:53 pm CDT W 23.0 G 29.9 10.00 A Few Clouds and Breezy -- 73.0 68.0 84% NA NA 29.73 M
2:53 pm CDT W 18.4 G 23.0 NULL NULL -- 81.0 77.0 88% NA 88 29.72 M
1:53 pm CDT W 19.6 G 26.5 10.00 Partly Cloudy -- 81.0 77.0 88% NA 88 29.74 1006.8
12:53 pm CDT W 19.6 G 26.5 10.00 Partly Cloudy -- 81.0 77.0 88% NA 88 29.74 1006.8
11:53 am CDT W 12.7 G 23.0 10.00 Partly Cloudy -- 77.0 77.0 100% NA NA 29.75 1007.1
1:53 am CDT S 35.7 G 61.0 10.00 Light Rain and Windy -- 79.0 73.9 85% NA NA 29.53 999.7
12:53 am CDT S 31.1 G 52.9 10.00 Light Rain and Windy -- 78.0 73.9 87% NA NA 29.44 996.5
11:53 pm CDT SE 21.9 G 39.1 2.00 Heavy Rain Fog/Mist and Breezy -- 76.0 73.0 91% NA NA 29.54 1000.1
10:53 pm CDT E 17.3 G 25.3 10.00 Light Rain -- 76.0 73.0 91% NA NA 29.64 1003.4
9:53 pm CDT E 17.3 10.00 Light Rain -- 76.0 72.0 88% NA NA 29.72 1006.1
8:53 pm CDT E 12.7 10.00 Light Rain -- 77.0 72.0 85% NA NA 29.78 1008.0
7:53 pm CDT E 10.4 10.00 Fair -- 78.0 73.0 85% NA NA 29.81 1009.2
6:53 pm CDT E 9.2 10.00 Partly Cloudy -- 78.0 73.0 85% NA NA 29.82 1009.6
5:53 pm CDT E 8.1 10.00 A Few Clouds -- 78.0 73.0 85% NA NA 29.84 1010.1

Regional Weather Observation


Montgomery, Dannelly Field, AL (KMGM)

Fair and Breezy
73.0 F

Alexander City, Thomas C Russell Field Airport, AL (KALX)

Fair
70.0 F

Mac Crenshaw Memorial Airport, AL (KPRN)

Fair
69.0 F

Alabaster, Shelby County Airport, AL (KEET)

A Few Clouds
61.0 F

Troy, Troy Municipal Airport, AL (KTOI)

Fair
74.0 F

Auburn-Opelika Airport, AL (KAUO)

Fair
73.0 F